[[{"header":{"parameterUnit":"m.s-1","parameterCategory":1,"la1":30.2991,"la2":30.254,"lo1":-89.0895,"lo2":-89.0444,"dy":0.0017,"dx":0.0017,"nx":28,"ny":28,"refTime":"2023-07-25T21:00:00:Z","depth":0,"parameterNumber":2,"parameterNumberName":"U-component_of_WINDS"},"data":[0,0,0,0,0,0,0,0,0,0,0,0,0,0,0,0,0,0,0,0,0,0,0,0,0,0,0,0,0,0,0,0,0,0,0,0,0,0,0,0,0,0,0,0,0,0,0,0,0,0,0,0,0,0,0,0,0,0,-0.659,-0.659,0,-0.6562,-0.6561,-0.6561,-0.6541,-0.6541,-0.6541,-0.6541,-0.6512,-0.6512,-0.6511,0,0,0,0,0,0,0,0,0,0,0,0,0,-0.663,-0.6629,-0.659,-0.659,-0.659,-0.6562,-0.6561,-0.6561,-0.6541,-0.6541,-0.6541,-0.6541,-0.6513,-0.6512,-0.6511,0,0,0,0,0,0,0,0,0,0,0,0,0,-0.6608,-0.6629,-0.6591,-0.6577,-0.6575,-0.6562,-0.6561,-0.6561,-0.6542,-0.6541,-0.6541,-0.6541,-0.6513,-0.6512,-0.6511,-0.6509,0,0,-0.6508,-0.6508,0,0,0,0,0,0,0,0,-0.6609,-0.6607,-0.6579,-0.6578,-0.6576,-0.6555,-0.6565,-0.6543,-0.6542,-0.6554,-0.6541,-0.6541,-0.6527,-0.6525,-0.652,-0.6508,-0.6507,-0.6508,-0.6507,-0.6507,-0.6507,0,0,0,0,0,0,0,-0.6611,-0.6608,-0.6579,-0.6579,-0.6577,-0.6572,-0.6569,-0.6561,-0.6542,-0.6553,-0.6552,-0.6549,-0.6526,-0.6521,-0.6519,-0.6506,-0.6508,-0.6507,-0.6507,-0.6506,-0.6492,-0.6492,0,0,0,0,0,0,-0.6615,-0.6609,-0.658,-0.6578,-0.6592,-0.6572,-0.6568,-0.6562,-0.6542,-0.6539,-0.6549,-0.6548,-0.6522,-0.652,-0.6518,-0.6515,-0.6507,-0.6506,-0.6506,-0.6492,-0.6492,-0.6492,0,0,0,0,0,0,-0.6615,-0.6612,-0.6581,-0.6593,-0.6589,-0.6571,-0.6565,-0.6561,-0.6556,-0.6539,-0.6535,-0.6547,-0.6522,-0.6519,-0.6512,-0.6513,-0.6506,-0.6505,-0.6492,-0.6492,-0.6492,-0.6508,0,0,0,0,0,0,-0.6617,-0.6613,-0.6611,-0.6593,-0.6588,-0.6575,-0.6565,-0.6561,-0.6554,-0.6553,-0.6536,-0.6533,-0.6522,-0.6513,-0.6511,-0.6512,-0.6504,-0.6491,-0.6492,-0.6492,-0.6507,-0.6509,-0.651,0,0,0,0,0,-0.6618,-0.6617,-0.6611,-0.6608,-0.6587,-0.6575,-0.6572,-0.6559,-0.6555,-0.6554,-0.6542,-0.6534,-0.6514,-0.6512,-0.6509,-0.6511,-0.6491,-0.6492,-0.6492,-0.6507,-0.6509,-0.651,0,0,0,0,0,0,-0.6636,-0.6615,-0.6608,-0.6601,-0.659,-0.6572,-0.657,-0.6562,-0.6552,-0.6551,-0.6535,-0.6531,-0.6526,-0.6517,-0.6516,-0.6508,-0.6501,-0.6501,-0.6514,-0.6515,-0.6517,-0.6519,-0.6503,0,0,0,0,0,-0.6639,-0.6631,-0.6613,-0.6609,-0.6604,-0.6588,-0.6582,-0.6573,-0.6561,-0.6557,-0.6545,-0.6534,-0.6525,-0.652,-0.6511,-0.6506,-0.6502,-0.6506,-0.6507,-0.6508,-0.6508,-0.6506,-0.6507,-0.6494,-0.6494,-0.6494,0,0,-0.6646,-0.6633,-0.6629,-0.6612,-0.6603,-0.6595,-0.6584,-0.6577,-0.6571,-0.6556,-0.6548,-0.6539,-0.6525,-0.6519,-0.6516,-0.6512,-0.6511,-0.6509,-0.651,-0.6509,-0.6506,-0.6508,-0.6509,-0.6494,-0.6494,-0.6494,0,0,-0.6654,-0.6643,-0.6638,-0.6629,-0.6615,-0.6604,-0.6603,-0.6586,-0.658,-0.6571,-0.656,-0.6553,-0.6538,-0.6529,-0.6523,-0.6528,-0.652,-0.6526,-0.6533,-0.6531,-0.6532,-0.6533,-0.6535,-0.6536,-0.6526,-0.6526,-0.6526,0,-0.6663,-0.6651,-0.6637,-0.663,-0.6624,-0.6609,-0.6604,-0.6596,-0.658,-0.6575,-0.6571,-0.6553,-0.6543,-0.6535,-0.6536,-0.6531,-0.653,-0.6527,-0.6533,-0.6533,-0.6534,-0.6536,-0.6537,-0.6527,-0.6526,-0.6526,-0.6526,0,-0.6664,-0.6656,-0.6654,-0.6639,-0.6632,-0.6626,-0.6611,-0.6606,-0.6598,-0.6588,-0.658,-0.6567,-0.6556,-0.6553,-0.6545,-0.6544,-0.6542,-0.6536,-0.6529,-0.6536,-0.6538,-0.6538,-0.6528,-0.6527,-0.6527,-0.6527,0,0,-0.6683,-0.6659,-0.6659,-0.6651,-0.6635,-0.6628,-0.6622,-0.6611,-0.6607,-0.6596,-0.6591,-0.6579,-0.6573,-0.6565,-0.6556,-0.6554,-0.6559,-0.6548,-0.6547,-0.655,-0.6558,-0.6563,-0.6564,-0.6553,-0.6553,-0.6554,-0.6559,0,-0.6688,-0.6676,-0.6663,-0.6656,-0.6649,-0.6635,-0.663,-0.6619,-0.661,-0.6603,-0.6592,-0.6584,-0.6577,-0.6572,-0.657,-0.6559,-0.656,-0.6558,-0.6549,-0.6549,-0.6553,-0.6564,-0.657,-0.6575,-0.6559,-0.6559,-0.6559,0,-0.6693,-0.6682,-0.6674,-0.6658,-0.6655,-0.665,-0.6639,-0.6632,-0.662,-0.6613,-0.6605,-0.6596,-0.6589,-0.6583,-0.6574,-0.6573,-0.6568,-0.6563,-0.6562,-0.6561,-0.6555,-0.6563,-0.6577,-0.6577,-0.656,-0.656,-0.656,0,-0.6707,-0.6691,-0.6684,-0.6678,-0.666,-0.6657,-0.6649,-0.6637,-0.6631,-0.6621,-0.6617,-0.6607,-0.6601,-0.6593,-0.6581,-0.6578,-0.6574,-0.6566,-0.6568,-0.6569,-0.6568,-0.6568,-0.6581,-0.6565,-0.6565,-0.6565,-0.6565,0,-0.6714,-0.671,-0.669,-0.6686,-0.6681,-0.6667,-0.6662,-0.6653,-0.6642,-0.6637,-0.6624,-0.6619,-0.6603,-0.6596,-0.6587,-0.6581,-0.6579,-0.6573,-0.6571,-0.6575,-0.6575,-0.6571,-0.6571,-0.6565,-0.6565,-0.6565,-0.6565,0,-0.6729,-0.6716,-0.6708,-0.6691,-0.6686,-0.6683,-0.6669,-0.6665,-0.6655,-0.6648,-0.6645,-0.663,-0.6621,-0.6608,-0.6596,-0.6589,-0.6585,-0.6581,-0.6589,-0.6588,-0.659,-0.659,-0.6601,-0.6602,-0.6585,-0.6586,-0.6586,0,-0.6735,-0.6731,-0.6714,-0.6709,-0.6701,-0.6694,-0.6687,-0.6673,-0.6667,-0.6653,-0.6651,-0.6641,-0.6633,-0.662,-0.6608,-0.6598,-0.6594,-0.6598,-0.6592,-0.6596,-0.6594,-0.6595,-0.6594,-0.66,-0.66,-0.66,-0.66,0,-0.6746,-0.674,-0.6731,-0.672,-0.6713,-0.6704,-0.6694,-0.6691,-0.6675,-0.6669,-0.666,-0.6654,-0.6641,-0.6631,-0.662,-0.6613,-0.6604,-0.6602,-0.6602,-0.6606,-0.6611,-0.6608,-0.6593,-0.6602,-0.6602,-0.6602,-0.6602,-0.6601,-0.6757,-0.6753,-0.674,-0.6731,-0.6722,-0.6714,-0.6709,-0.6698,-0.669,-0.6679,-0.6671,-0.6662,-0.6651,-0.6635,-0.6628,-0.6621,-0.6617,-0.6617,-0.6617,-0.6618,-0.6619,-0.6612,-0.6619,-0.6619,-0.6619,-0.6619,-0.6619,0,-0.6768,-0.6759,-0.6751,-0.6737,-0.673,-0.6723,-0.6712,-0.6706,-0.6699,-0.6689,-0.668,-0.667,-0.6661,-0.6649,-0.6639,-0.6636,-0.6632,-0.6634,-0.6634,-0.6633,-0.6623,-0.6624,-0.6638,-0.6638,-0.6638,-0.6638,-0.6638,-0.6638,-0.6772,-0.6766,-0.6758,-0.6747,-0.6738,-0.673,-0.6724,-0.6716,-0.6708,-0.6697,-0.6689,-0.6681,-0.667,-0.666,-0.6651,-0.6648,-0.6645,-0.6648,-0.6644,-0.6635,-0.6633,-0.6632,-0.6632,-0.6648,-0.6648,-0.6654,-0.6654,-0.6654]},{"header":{"parameterUnit":"m.s-1","parameterCategory":1,"la1":30.2991,"la2":30.254,"lo1":-89.0895,"lo2":-89.0444,"dy":0.0017,"dx":0.0017,"nx":28,"ny":28,"refTime":"2023-07-25T21:00:00:Z","depth":0,"parameterNumber":3,"parameterNumberName":"V-component_of_WINDS"},"data":[0,0,0,0,0,0,0,0,0,0,0,0,0,0,0,0,0,0,0,0,0,0,0,0,0,0,0,0,0,0,0,0,0,0,0,0,0,0,0,0,0,0,0,0,0,0,0,0,0,0,0,0,0,0,0,0,0,0,-1.6099,-1.6099,0,-1.6108,-1.6108,-1.6108,-1.6072,-1.6071,-1.607,-1.6069,-1.6076,-1.6077,-1.6078,0,0,0,0,0,0,0,0,0,0,0,0,0,-1.6048,-1.6049,-1.6099,-1.6099,-1.6099,-1.6108,-1.6108,-1.6108,-1.6072,-1.6071,-1.6069,-1.6068,-1.6075,-1.6077,-1.6078,0,0,0,0,0,0,0,0,0,0,0,0,0,-1.6065,-1.6049,-1.6099,-1.6082,-1.6081,-1.6108,-1.6108,-1.6108,-1.6072,-1.6071,-1.6069,-1.6067,-1.6075,-1.6077,-1.6078,-1.6122,0,0,-1.6084,-1.6085,0,0,0,0,0,0,0,0,-1.6064,-1.6067,-1.6084,-1.6083,-1.6082,-1.6087,-1.6093,-1.6113,-1.6073,-1.6075,-1.6069,-1.6067,-1.6081,-1.6082,-1.6087,-1.6122,-1.6122,-1.6084,-1.6085,-1.6086,-1.6086,0,0,0,0,0,0,0,-1.6063,-1.6066,-1.6102,-1.6085,-1.6083,-1.6074,-1.6074,-1.6096,-1.6087,-1.6075,-1.6072,-1.6074,-1.608,-1.6085,-1.6087,-1.6122,-1.6084,-1.6086,-1.6087,-1.6087,-1.6195,-1.6196,0,0,0,0,0,0,-1.6064,-1.6065,-1.6102,-1.6103,-1.6069,-1.6076,-1.6076,-1.6087,-1.6087,-1.6085,-1.6075,-1.6072,-1.6083,-1.6085,-1.6087,-1.6139,-1.6086,-1.6088,-1.6089,-1.6193,-1.6195,-1.6197,0,0,0,0,0,0,-1.6063,-1.6068,-1.6102,-1.6083,-1.6087,-1.6078,-1.6091,-1.6088,-1.6094,-1.6087,-1.6085,-1.6083,-1.6082,-1.6085,-1.6114,-1.6139,-1.6088,-1.609,-1.6191,-1.6194,-1.6196,-1.6243,0,0,0,0,0,0,-1.6062,-1.6068,-1.6084,-1.6084,-1.6088,-1.6129,-1.6092,-1.6089,-1.6097,-1.6093,-1.6094,-1.6092,-1.6081,-1.6111,-1.6116,-1.614,-1.6091,-1.6189,-1.6192,-1.6195,-1.6239,-1.6246,-1.6253,0,0,0,0,0,-1.606,-1.6096,-1.6085,-1.609,-1.6109,-1.613,-1.6133,-1.612,-1.6099,-1.6116,-1.6112,-1.6092,-1.6135,-1.6115,-1.6119,-1.6145,-1.6187,-1.6191,-1.6195,-1.6236,-1.6245,-1.6253,0,0,0,0,0,0,-1.6098,-1.6096,-1.6084,-1.6121,-1.6126,-1.6124,-1.6145,-1.613,-1.614,-1.6136,-1.6119,-1.6119,-1.6152,-1.6151,-1.6128,-1.6187,-1.6158,-1.6163,-1.6187,-1.6196,-1.6203,-1.6203,-1.6093,0,0,0,0,0,-1.6111,-1.613,-1.6126,-1.6159,-1.6163,-1.6153,-1.6162,-1.6152,-1.6156,-1.6158,-1.6156,-1.6161,-1.6175,-1.6185,-1.6198,-1.6238,-1.6238,-1.6258,-1.6265,-1.6271,-1.6276,-1.6298,-1.6307,-1.621,-1.621,-1.621,0,0,-1.6137,-1.6138,-1.6151,-1.6167,-1.617,-1.6189,-1.6155,-1.6177,-1.6191,-1.6161,-1.6189,-1.6188,-1.6192,-1.6227,-1.6243,-1.6228,-1.6303,-1.6276,-1.6281,-1.6283,-1.6303,-1.6313,-1.6321,-1.6213,-1.6212,-1.6212,0,0,-1.6196,-1.6198,-1.6227,-1.6231,-1.6236,-1.623,-1.6237,-1.6238,-1.6236,-1.6264,-1.6243,-1.6259,-1.6284,-1.6289,-1.6294,-1.6356,-1.6338,-1.636,-1.6398,-1.642,-1.6428,-1.6434,-1.6457,-1.6466,-1.6365,-1.6365,-1.6365,0,-1.6228,-1.6257,-1.6243,-1.6267,-1.6275,-1.625,-1.6279,-1.6283,-1.6292,-1.6298,-1.6281,-1.6313,-1.6314,-1.6351,-1.6366,-1.6371,-1.6379,-1.636,-1.6428,-1.6434,-1.644,-1.6462,-1.6471,-1.6368,-1.6367,-1.6367,-1.6367,0,-1.6296,-1.6317,-1.6339,-1.635,-1.6361,-1.6387,-1.6377,-1.6388,-1.6377,-1.6373,-1.6403,-1.6403,-1.6416,-1.6424,-1.6413,-1.6459,-1.645,-1.6431,-1.6401,-1.6453,-1.6473,-1.6481,-1.6372,-1.6371,-1.637,-1.6369,0,0,-1.6378,-1.6383,-1.6391,-1.6397,-1.6402,-1.6417,-1.6442,-1.6456,-1.6468,-1.6475,-1.6496,-1.6518,-1.6501,-1.6507,-1.6496,-1.6515,-1.6566,-1.6494,-1.6494,-1.6508,-1.6619,-1.6634,-1.6644,-1.6554,-1.6556,-1.6557,-1.6619,0,-1.6437,-1.6481,-1.647,-1.6514,-1.6533,-1.651,-1.6532,-1.6538,-1.6534,-1.655,-1.6546,-1.6563,-1.6538,-1.6542,-1.656,-1.6556,-1.6588,-1.6551,-1.6574,-1.6575,-1.6575,-1.6655,-1.6671,-1.6729,-1.6627,-1.6628,-1.6629,0,-1.6511,-1.6523,-1.6569,-1.6573,-1.658,-1.66,-1.6613,-1.6628,-1.6634,-1.663,-1.6638,-1.6624,-1.6648,-1.6618,-1.6652,-1.6627,-1.6635,-1.6635,-1.6637,-1.6639,-1.6606,-1.666,-1.6747,-1.6757,-1.6641,-1.664,-1.6639,0,-1.6568,-1.6595,-1.6627,-1.6632,-1.6636,-1.6651,-1.6654,-1.6658,-1.6668,-1.6678,-1.6685,-1.6698,-1.6705,-1.6716,-1.6705,-1.6684,-1.6741,-1.6709,-1.6739,-1.674,-1.6753,-1.6753,-1.6844,-1.6757,-1.6757,-1.6756,-1.6756,0,-1.6635,-1.6664,-1.6653,-1.6673,-1.6705,-1.6692,-1.6724,-1.6724,-1.6728,-1.6747,-1.6727,-1.6745,-1.673,-1.6746,-1.6738,-1.6768,-1.6771,-1.6769,-1.6767,-1.6772,-1.6772,-1.6778,-1.6774,-1.6759,-1.6758,-1.6758,-1.6757,0,-1.6704,-1.6698,-1.6731,-1.6733,-1.6734,-1.6759,-1.676,-1.6778,-1.6774,-1.6798,-1.6803,-1.6796,-1.6815,-1.6805,-1.6824,-1.6818,-1.6858,-1.6849,-1.6857,-1.6855,-1.6886,-1.6883,-1.6985,-1.6998,-1.6901,-1.6902,-1.6903,0,-1.6748,-1.677,-1.6776,-1.6788,-1.6792,-1.6811,-1.6821,-1.6809,-1.6821,-1.683,-1.6847,-1.6864,-1.6878,-1.6908,-1.6905,-1.6919,-1.6912,-1.6946,-1.6914,-1.6918,-1.6914,-1.6913,-1.6916,-1.6953,-1.6954,-1.6955,-1.6956,0,-1.6826,-1.6823,-1.6839,-1.6855,-1.6869,-1.688,-1.689,-1.69,-1.6888,-1.6902,-1.6922,-1.6933,-1.6953,-1.697,-1.6983,-1.6985,-1.6969,-1.6966,-1.6974,-1.698,-1.6984,-1.6983,-1.6876,-1.6964,-1.6963,-1.6962,-1.6962,-1.6962,-1.6885,-1.6905,-1.6912,-1.6931,-1.6938,-1.6948,-1.6966,-1.6964,-1.6981,-1.6998,-1.6989,-1.7012,-1.7018,-1.7034,-1.7038,-1.7056,-1.7042,-1.7053,-1.7056,-1.7059,-1.7064,-1.698,-1.7058,-1.7057,-1.7057,-1.7057,-1.7057,0,-1.6964,-1.6968,-1.6986,-1.7001,-1.7017,-1.7001,-1.7011,-1.7025,-1.7046,-1.7053,-1.7068,-1.7091,-1.7108,-1.7106,-1.7122,-1.7137,-1.713,-1.7141,-1.7141,-1.7142,-1.7075,-1.7067,-1.7147,-1.7147,-1.7147,-1.7147,-1.7147,-1.7147,-1.7007,-1.704,-1.7037,-1.7074,-1.7077,-1.7101,-1.7108,-1.7117,-1.7123,-1.7151,-1.7166,-1.7165,-1.7168,-1.7185,-1.72,-1.7199,-1.7206,-1.7221,-1.7217,-1.7155,-1.7146,-1.7138,-1.713,-1.7222,-1.7222,-1.7282,-1.7283,-1.7283]}]]